| time (UTC) | temp F | wind direction | speed MPH | gust MPH | rain 1hr in | rain 24hr in | rain mn in | humidity % | barometer mb |
| 20260509161526 | 74 | 155 | 0.0 | 0.0 | 0.00 | 0.00 | 0.00 | 100 | 1011.7 |
| 20260509160010 | 74 | 155 | 0.0 | 0.0 | 0.00 | 0.00 | 0.00 | 100 | 1011.7 |
| 20260509154517 | 73 | 155 | 0.0 | 0.0 | 0.00 | 0.00 | 0.00 | 100 | 1011.7 |
| 20260509153024 | 73 | 155 | 0.0 | 0.0 | 0.00 | 0.00 | 0.00 | 100 | 1011.7 |
| 20260509151524 | 73 | 155 | 0.0 | 0.0 | 0.00 | 0.00 | 0.00 | 100 | 1011.5 |
| 20260509150027 | 73 | 155 | 0.0 | 0.0 | 0.00 | 0.00 | 0.00 | 100 | 1011.5 |
| 20260509144513 | 72 | 155 | 0.0 | 1.0 | 0.00 | 0.00 | 0.00 | 100 | 1011.4 |
| 20260509143027 | 72 | 155 | 0.0 | 0.0 | 0.00 | 0.00 | 0.00 | 100 | 1011.5 |
| 20260509141526 | 72 | 155 | 0.0 | 0.0 | 0.00 | 0.00 | 0.00 | 100 | 1011.7 |
| 20260509140024 | 72 | 155 | 0.0 | 0.0 | 0.00 | 0.00 | 0.00 | 100 | 1011.6 |
| 20260509134512 | 71 | 155 | 0.0 | 0.0 | 0.00 | 0.00 | 0.00 | 100 | 1011.6 |
| 20260509133015 | 71 | 360 | 0.0 | 0.0 | 0.00 | 0.00 | 0.00 | 100 | 1011.5 |
| 20260509131504 | 71 | 360 | 0.0 | 0.0 | 0.00 | 0.00 | 0.00 | 100 | 1011.6 |
| 20260509130011 | 71 | 155 | 0.0 | 0.0 | 0.00 | 0.00 | 0.00 | 100 | 1011.4 |
| 20260509124507 | 71 | 155 | 0.0 | 0.0 | 0.00 | 0.00 | 0.00 | 100 | 1011.3 |
| 20260509123013 | 71 | 155 | 0.0 | 0.0 | 0.00 | 0.00 | 0.00 | 100 | 1011.1 |
| 20260509121521 | 70 | 155 | 0.0 | 1.0 | 0.00 | 0.00 | 0.00 | 100 | 1011.0 |
| 20260509120012 | 70 | 154 | 0.0 | 1.0 | 0.00 | 0.00 | 0.00 | 100 | 1010.8 |
| 20260509114504 | 70 | 198 | 0.0 | 0.0 | 0.00 | 0.00 | 0.00 | 100 | 1010.5 |
| 20260509113013 | 70 | 198 | 0.0 | 0.0 | 0.00 | 0.00 | 0.00 | 100 | 1010.9 |
| 20260509111516 | 70 | 198 | 0.0 | 0.0 | 0.00 | 0.00 | 0.00 | 100 | 1010.9 |
| 20260509110019 | 70 | 198 | 0.0 | 0.0 | 0.00 | 0.00 | 0.00 | 100 | 1010.7 |
| 20260509104503 | 70 | 198 | 0.0 | 0.0 | 0.00 | 0.00 | 0.00 | 100 | 1010.7 |
| 20260509103008 | 70 | 198 | 0.0 | 0.0 | 0.00 | 0.00 | 0.00 | 100 | 1010.5 |
| 20260509101514 | 70 | 198 | 0.0 | 0.0 | 0.00 | 0.00 | 0.00 | 100 | 1010.8 |
| 20260509100017 | 70 | 198 | 0.0 | 0.0 | 0.00 | 0.00 | 0.00 | 100 | 1010.8 |
| 20260509094522 | 70 | 198 | 0.0 | 0.0 | 0.00 | 0.00 | 0.00 | 100 | 1011.0 |
| 20260509093008 | 70 | 198 | 0.0 | 0.0 | 0.00 | 0.00 | 0.00 | 100 | 1010.8 |
| 20260509091518 | 70 | 198 | 0.0 | 0.0 | 0.00 | 0.00 | 0.00 | 100 | 1010.9 |
| 20260509090015 | 70 | 198 | 0.0 | 0.0 | 0.00 | 0.00 | 0.00 | 100 | 1010.7 |
| 20260509084526 | 70 | 198 | 0.0 | 0.0 | 0.00 | 0.00 | 0.00 | 100 | 1010.8 |
| 20260509083026 | 70 | 198 | 0.0 | 0.0 | 0.00 | 0.00 | 0.00 | 100 | 1011.3 |
| 20260509081509 | 70 | 198 | 0.0 | 0.0 | 0.00 | 0.00 | 0.00 | 100 | 1011.4 |
| 20260509080021 | 70 | 198 | 0.0 | 0.0 | 0.00 | 0.00 | 0.00 | 100 | 1011.4 |
| 20260509074519 | 70 | 198 | 0.0 | 0.0 | 0.00 | 0.00 | 0.00 | 100 | 1011.2 |
| 20260509073037 | 70 | 198 | 0.0 | 0.0 | 0.00 | 0.00 | 0.00 | 100 | 1011.3 |
| 20260509071525 | 70 | 198 | 0.0 | 0.0 | 0.00 | 0.00 | 0.00 | 100 | 1011.4 |
| 20260509070011 | 70 | 198 | 0.0 | 3.0 | 0.00 | 0.00 | 0.00 | 100 | 1011.2 |
| 20260509064516 | 70 | 198 | 0.0 | 0.0 | 0.00 | 0.00 | 0.00 | 100 | 1011.7 |
| 20260509063025 | 70 | 198 | 0.0 | 0.0 | 0.00 | 0.00 | 0.00 | 100 | 1011.8 |
| 20260509061525 | 70 | 198 | 0.0 | 0.0 | 0.00 | 0.00 | 0.00 | 100 | 1012.0 |
| 20260509060026 | 70 | 198 | 0.0 | 0.0 | 0.00 | 0.00 | 0.00 | 100 | 1012.0 |
| 20260509054526 | 70 | 198 | 0.0 | 0.0 | 0.00 | 0.00 | 0.00 | 100 | 1012.3 |
| 20260509053020 | 70 | 198 | 0.0 | 0.0 | 0.00 | 0.00 | 0.00 | 100 | 1012.1 |
| 20260509051524 | 70 | 198 | 0.0 | 0.0 | 0.00 | 0.00 | 0.00 | 100 | 1011.9 |
| 20260509050034 | 70 | 198 | 0.0 | 0.0 | 0.00 | 0.00 | 0.00 | 100 | 1011.7 |
| 20260509044513 | 71 | 198 | 0.0 | 0.0 | 0.00 | 0.00 | 0.00 | 100 | 1011.5 |
| 20260509043016 | 71 | 198 | 0.0 | 0.0 | 0.00 | 0.00 | 0.00 | 100 | 1011.3 |
| 20260509041504 | 71 | 198 | 0.0 | 0.0 | 0.00 | 0.00 | 0.00 | 100 | 1011.3 |
| 20260509040006 | 71 | 198 | 0.0 | 0.0 | 0.00 | 0.00 | 0.00 | 100 | 1011.5 |
| 20260509034512 | 71 | 198 | 0.0 | 0.0 | 0.00 | 0.00 | 0.00 | 100 | 1011.5 |
| 20260509033010 | 71 | 198 | 0.0 | 0.0 | 0.00 | 0.00 | 0.00 | 100 | 1011.4 |
| 20260509031512 | 71 | 198 | 0.0 | 0.0 | 0.00 | 0.00 | 0.00 | 100 | 1011.3 |
| 20260509030004 | 71 | 198 | 0.0 | 0.0 | 0.00 | 0.00 | 0.00 | 100 | 1011.0 |
| 20260509024507 | 71 | 198 | 0.0 | 0.0 | 0.00 | 0.00 | 0.00 | 100 | 1010.4 |
| 20260509023019 | 72 | 198 | 0.0 | 0.0 | 0.00 | 0.00 | 0.00 | 100 | 1010.4 |
| 20260509021519 | 72 | 198 | 0.0 | 0.0 | 0.00 | 0.00 | 0.00 | 100 | 1010.1 |
| 20260509020013 | 73 | 198 | 0.0 | 2.0 | 0.00 | 0.00 | 0.00 | 100 | 1009.4 |
| 20260509014505 | 73 | 198 | 0.0 | 4.0 | 0.00 | 0.00 | 0.00 | 100 | 1009.1 |
| 20260509013022 | 73 | 200 | 0.0 | 0.0 | 0.00 | 0.00 | 0.00 | 100 | 1009.1 |
| 20260509011514 | 73 | 200 | 0.0 | 0.0 | 0.00 | 0.00 | 0.00 | 100 | 1009.0 |
| 20260509010023 | 73 | 150 | 0.0 | 1.0 | 0.00 | 0.00 | 0.00 | 100 | 1009.3 |
| 20260509004533 | 74 | 150 | 0.0 | 2.0 | 0.00 | 0.00 | 0.00 | 100 | 1009.5 |
| 20260509003009 | 74 | 150 | 0.0 | 4.0 | 0.00 | 0.00 | 0.00 | 100 | 1009.7 |
| 20260509001513 | 74 | 150 | 0.0 | 1.0 | 0.00 | 0.00 | 0.00 | 100 | 1009.7 |
| 20260509000019 | 74 | 150 | 0.0 | 0.0 | 0.00 | 0.00 | 0.00 | 100 | 1009.7 |
| 20260508234518 | 74 | 151 | 0.0 | 0.0 | 0.00 | 0.00 | 0.00 | 100 | 1009.7 |
| 20260508233020 | 74 | 156 | 0.0 | 0.0 | 0.00 | 0.00 | 0.00 | 100 | 1010.1 |
| 20260508231511 | 74 | 156 | 0.0 | 1.0 | 0.00 | 0.00 | 0.00 | 100 | 1010.1 |
| 20260508230035 | 74 | 156 | 0.0 | 0.0 | 0.00 | 0.00 | 0.00 | 100 | 1010.2 |
| 20260508224519 | 75 | 156 | 0.0 | 1.0 | 0.00 | 0.00 | 0.00 | 100 | 1010.0 |
| 20260508223025 | 75 | 226 | 0.0 | 0.0 | 0.00 | 0.00 | 0.00 | 100 | 1010.8 |
| 20260508221521 | 76 | 92 | 0.0 | 0.0 | 0.00 | 0.00 | 0.00 | 100 | 1011.0 |
| 20260508220016 | 76 | 92 | 0.0 | 0.0 | 0.00 | 0.00 | 0.00 | 100 | 1011.0 |
| 20260508214519 | 77 | 92 | 0.0 | 0.0 | 0.00 | 0.00 | 0.00 | 7 | 1010.7 |
| 20260508213023 | 78 | 92 | 0.0 | 1.0 | 0.00 | 0.00 | 0.00 | 28 | 1010.6 |
| 20260508211527 | 78 | 92 | 0.0 | 3.0 | 0.00 | 0.00 | 0.00 | 30 | 1010.7 |
| 20260508210012 | 79 | 90 | 0.0 | 3.0 | 0.00 | 0.00 | 0.00 | 36 | 1010.5 |
| 20260508204518 | 79 | 90 | 1.0 | 6.0 | 0.00 | 0.00 | 0.00 | 41 | 1010.6 |
| 20260508203022 | 78 | 103 | 0.0 | 1.0 | 0.00 | 0.00 | 0.00 | 37 | 1010.9 |
| 20260508201524 | 77 | 105 | 0.0 | 0.0 | 0.00 | 0.00 | 0.00 | 32 | 1011.0 |
| 20260508200036 | 76 | 105 | 0.0 | 0.0 | 0.00 | 0.00 | 0.00 | 38 | 1011.3 |
| 20260508194516 | 76 | 105 | 0.0 | 0.0 | 0.00 | 0.00 | 0.00 | 36 | 1011.6 |
| 20260508193005 | 77 | 105 | 0.0 | 0.0 | 0.00 | 0.00 | 0.00 | 46 | 1011.7 |
| 20260508191506 | 77 | 78 | 0.0 | 0.0 | 0.00 | 0.00 | 0.00 | 43 | 1011.8 |
| 20260508190008 | 78 | 78 | 0.0 | 6.0 | 0.00 | 0.00 | 0.00 | 40 | 1011.8 |
| 20260508184521 | 77 | 80 | 0.0 | 6.0 | 0.00 | 0.00 | 0.00 | 40 | 1012.0 |
| 20260508183018 | 76 | 73 | 0.0 | 2.0 | 0.00 | 0.00 | 0.00 | 38 | 1012.2 |
| 20260508181505 | 76 | 155 | 0.0 | 5.0 | 0.00 | 0.00 | 0.00 | 44 | 1012.8 |
| 20260508180006 | 76 | 81 | 0.0 | 2.0 | 0.00 | 0.00 | 0.00 | 32 | 1012.9 |
| 20260508174513 | 75 | 82 | 0.0 | 1.0 | 0.00 | 0.00 | 0.00 | 31 | 1013.4 |
| 20260508173014 | 74 | 162 | 0.0 | 3.0 | 0.00 | 0.00 | 0.00 | 9 | 1013.6 |
| 20260508171520 | 73 | 77 | 0.0 | 2.0 | 0.00 | 0.00 | 0.00 | 8 | 1013.8 |
| 20260508170011 | 72 | 76 | 0.0 | 4.0 | 0.00 | 0.00 | 0.00 | 4 | 1014.1 |
| 20260508164507 | 71 | 73 | 0.0 | 5.0 | 0.00 | 0.00 | 0.00 | 8 | 1014.4 |
| 20260508163012 | 69 | 84 | 0.0 | 2.0 | 0.00 | 0.00 | 0.00 | 100 | 1014.8 |